KC9KZ-13 Weather Reports


Display with metric or nautical units.
time (UTC)temp
F
wind
direction
speed
MPH
gust
MPH
rain 1hr
in
rain 24hr
in
rain mn
in
humidity
%
barometer
mb
20260505023940 66 167 9.0 13.0 0.00 0.00 0.00 35 1008.8
20260505020948 67 165 9.0 13.0 0.00 0.00 0.00 34 1008.7
20260505013939 68 176 11.0 14.0 0.00 0.00 0.00 35 1008.5
20260505011004 69 157 10.0 18.0 0.00 0.00 0.00 33 1008.6
20260505003936 69 164 10.0 15.0 0.00 0.00 0.00 35 1008.7
20260505000945 72 177 9.0 18.0 0.00 0.00 0.00 31 1008.5
20260504233935 72 149 12.0 20.0 0.00 0.00 0.00 29 1008.6
20260504230944 73 169 16.0 23.0 0.00 0.00 0.00 28 1008.6
20260504223931 73 151 14.0 19.0 0.00 0.00 0.00 30 1008.6
20260504220935 72 153 14.0 20.0 0.00 0.00 0.00 28 1009.9
20260504213946 72 213 8.0 24.0 0.00 0.00 0.00 27 1010.3
20260504210959 73 158 14.0 21.0 0.00 0.00 0.00 26 1010.6
20260504203935 72 162 10.0 22.0 0.00 0.00 0.00 26 1010.6
20260504200925 72 177 16.0 20.0 0.00 0.00 0.00 25 1011.0
20260504193931 71 164 15.0 21.0 0.00 0.00 0.00 28 1010.6
20260504190933 71 165 15.0 19.0 0.00 0.00 0.00 30 1010.9
20260504183931 70 154 13.0 18.0 0.00 0.00 0.00 33 1011.0
20260504173941 69 167 12.0 18.0 0.00 0.00 0.00 36 1011.0
20260504170938 68 148 10.0 13.0 0.00 0.00 0.00 39 1010.8
20260504151002 65 207 10.0 14.0 0.00 0.00 0.00 45 1010.5
20260504140947 64 153 5.0 7.0 0.00 0.00 0.00 62 1009.5
20260504080949 68 160 11.0 14.0 0.00 0.00 0.00 40 1007.9
20260504043935 76 196 12.0 19.0 0.00 0.00 0.00 29 1007.7
20260504040938 77 205 18.0 25.0 0.00 0.00 0.00 27 1007.6
20260504034002 78 204 15.0 24.0 0.00 0.00 0.00 26 1007.0
20260504030935 79 220 12.0 23.0 0.00 0.00 0.00 26 1006.4